Date String (YYYY-MM-DD hh:mm:ss) UTC,Instrument flags,Ambient pressure (hPa),Sample flow (lpm),Bypass flow (lpm),Sample temperature (°C),Ambient temperature (°C),ASC tube jacket temperature (°C),LED temperature (°C),Box temperature (°C),Sample RH (%),Span deviation,Mass concentration (μg/m³),Mass concentration (μg/m³),Mass concentration (μg/m³)
DateTimeUTC,F1_M11,P_M11,Q1_M11,Q2_M11,T1_M11,T2_M11,T3_M11,T4_M11,T5_M11,U1_M11,ZSPAN_M11,X2_M11,X0_M11,X1_M11
2022-07-18 20:00:00,,0826.1,5.01,0.00,29.4,27.6,00.0,37.9,31.3,18.6,0000.0,0005.89,0008.84,0005.46
2022-07-18 20:01:00,,0826.0,5.01,0.00,29.4,27.2,00.0,37.9,31.2,18.4,0000.0,0005.90,0008.91,0005.46
2022-07-18 20:02:00,,0826.0,5.00,0.00,29.3,27.3,00.0,37.9,31.2,18.5,0000.0,0005.89,0008.82,0005.48
2022-07-18 20:03:00,,0826.1,5.00,0.00,29.3,27.4,00.0,37.9,31.1,18.4,0000.0,0005.88,0008.78,0005.47
2022-07-18 20:04:00,,0826.0,5.00,0.00,29.3,27.6,00.0,37.9,31.2,18.4,0000.0,0005.90,0008.98,0005.48
2022-07-18 20:05:00,,0826.0,4.99,0.00,29.3,27.8,00.0,38.0,31.2,18.3,0000.0,0005.90,0009.33,0005.49
2022-07-18 20:06:00,,0826.0,5.01,0.00,29.4,27.9,00.0,38.0,31.3,18.4,0000.0,0005.90,0009.31,0005.50
2022-07-18 20:07:00,,0826.0,5.00,0.00,29.4,27.5,00.0,37.9,31.3,18.4,0000.0,0005.88,0009.25,0005.50
2022-07-18 20:08:00,,0826.0,5.00,0.00,29.3,27.1,00.0,37.9,31.2,18.8,0000.0,0005.88,0010.12,0005.49
2022-07-18 20:09:00,,0826.0,5.00,0.00,29.3,27.2,00.0,37.9,31.2,18.9,0000.0,0005.87,0010.17,0005.47
2022-07-18 20:10:00,,0826.0,5.00,0.00,29.3,27.4,00.0,37.9,31.1,19.0,0000.0,0005.89,0010.50,0005.48
2022-07-18 20:11:00,,0826.0,4.99,0.00,29.3,27.6,00.0,37.9,31.1,19.4,0000.0,0005.90,0011.10,0005.46
2022-07-18 20:12:00,,0826.0,5.00,0.00,29.3,27.8,00.0,37.9,31.2,19.2,0000.0,0005.90,0011.08,0005.47
2022-07-18 20:13:00,,0826.0,5.00,0.00,29.3,28.0,00.0,38.0,31.3,19.3,0000.0,0005.92,0011.14,0005.48
2022-07-18 20:14:00,,0826.0,5.01,0.00,29.4,27.8,00.0,37.9,31.3,19.0,0000.0,0005.96,0011.76,0005.48
2022-07-18 20:15:00,,0826.0,4.99,0.00,29.4,27.3,00.0,37.9,31.2,20.0,0000.0,0005.96,0012.31,0005.49
2022-07-18 20:16:00,,0826.0,5.01,0.00,29.3,27.2,00.0,37.9,31.2,19.6,0000.0,0005.95,0011.75,0005.49
2022-07-18 20:17:00,,0826.0,4.99,0.00,29.3,27.3,00.0,37.9,31.1,19.4,0000.0,0005.96,0011.79,0005.50
2022-07-18 20:18:00,,0826.0,5.00,0.00,29.3,27.5,00.0,37.9,31.1,19.9,0000.0,0006.01,0011.89,0005.51
2022-07-18 20:19:00,,0826.0,5.01,0.00,29.3,27.7,00.0,37.9,31.2,19.8,0000.0,0006.03,0011.31,0005.51
2022-07-18 20:20:00,,0826.0,5.00,0.00,29.4,28.0,00.0,37.9,31.3,19.6,0000.0,0006.10,0011.27,0005.53
2022-07-18 20:21:00,,0826.0,5.00,0.00,29.4,27.8,00.0,37.9,31.3,19.2,0000.0,0006.15,0011.56,0005.55
2022-07-18 20:22:00,,0826.0,5.00,0.00,29.3,27.2,00.0,37.9,31.2,18.9,0000.0,0006.15,0011.28,0005.56
2022-07-18 20:23:00,,0826.0,5.00,0.00,29.3,27.2,00.0,37.9,31.2,19.0,0000.0,0006.16,0011.62,0005.56
2022-07-18 20:24:00,,0826.0,5.00,0.00,29.3,27.3,00.0,37.9,31.1,19.3,0000.0,0006.15,0011.58,0005.56
2022-07-18 20:25:00,,0826.0,5.00,0.00,29.3,27.5,00.0,37.9,31.2,19.0,0000.0,0006.11,0011.10,0005.55
2022-07-18 20:26:00,,0826.0,5.00,0.00,29.3,27.8,00.0,37.9,31.2,18.8,0000.0,0006.10,0010.25,0005.56
2022-07-18 20:27:00,,0826.0,4.99,0.00,29.4,27.8,00.0,37.9,31.3,18.9,0000.0,0006.12,0010.33,0005.56
2022-07-18 20:28:00,,0826.0,5.01,0.00,29.3,27.3,00.0,37.9,31.2,19.2,0000.0,0006.12,0010.33,0005.55
2022-07-18 20:29:00,,0826.0,5.00,0.00,29.3,27.0,00.0,37.8,31.1,19.3,0000.0,0006.09,0010.23,0005.54
2022-07-18 20:30:00,,0826.0,5.00,0.00,29.3,27.1,00.0,37.9,31.1,19.3,0000.0,0006.08,0010.32,0005.53
2022-07-18 20:31:00,,0826.0,5.00,0.00,29.2,27.3,00.0,37.9,31.1,19.2,0000.0,0006.07,0010.17,0005.52
2022-07-18 20:32:00,,0826.0,5.00,0.00,29.2,27.5,00.0,37.9,31.1,19.1,0000.0,0006.04,0009.77,0005.51
2022-07-18 20:33:00,,0826.0,4.99,0.00,29.3,27.7,00.0,37.9,31.2,19.3,0000.0,0006.03,0009.33,0005.51
2022-07-18 20:34:00,,0826.0,5.01,0.00,29.3,27.9,00.0,37.9,31.3,19.2,0000.0,0006.01,0009.04,0005.49
2022-07-18 20:35:00,,0826.0,5.01,0.00,29.3,27.6,00.0,37.9,31.3,19.3,0000.0,0005.99,0008.99,0005.47
2022-07-18 20:36:00,,0826.0,4.99,0.00,29.3,27.1,00.0,37.8,31.2,19.5,0000.0,0005.98,0009.13,0005.45
2022-07-18 20:37:00,,0826.0,5.00,0.00,29.3,27.1,00.0,37.8,31.1,19.8,0000.0,0005.93,0009.83,0005.42
2022-07-18 20:38:00,,0826.0,5.00,0.00,29.2,27.3,00.0,37.9,31.1,19.5,0000.0,0005.92,0009.84,0005.40
2022-07-18 20:39:00,,0826.1,5.01,0.00,29.2,27.5,00.0,37.9,31.1,21.7,0000.0,0005.95,0010.53,0005.37
2022-07-18 20:40:00,,0826.1,4.99,0.00,29.3,27.7,00.0,37.9,31.2,24.6,0000.0,0005.97,0011.76,0005.37
2022-07-18 20:41:00,,0826.1,4.99,0.00,29.3,27.9,00.0,37.9,31.3,25.7,0000.0,0006.03,0012.75,0005.39
2022-07-18 20:42:00,,0826.0,5.00,0.00,29.3,27.6,00.0,37.9,31.2,26.4,0000.0,0006.09,0013.69,0005.42
2022-07-18 20:43:00,,0826.0,5.00,0.00,29.3,27.2,00.0,37.8,31.1,27.0,0000.0,0006.18,0014.95,0005.47
2022-07-18 20:44:00,,0826.1,5.01,0.00,29.3,27.2,00.0,37.8,31.1,27.1,0000.0,0006.25,0015.49,0005.50
2022-07-18 20:45:00,,0826.1,5.00,0.00,29.2,27.3,00.0,37.9,31.1,27.7,0000.0,0006.37,0016.74,0005.54
2022-07-18 20:46:00,,0826.1,5.00,0.00,29.3,27.5,00.0,37.9,31.1,27.6,0000.0,0006.48,0017.22,0005.60
2022-07-18 20:47:00,,0826.1,4.99,0.00,29.3,27.8,00.0,37.9,31.2,28.5,0000.0,0006.62,0019.03,0005.66
2022-07-18 20:48:00,,0826.1,4.99,0.00,29.3,28.0,00.0,37.9,31.3,27.3,0000.0,0006.76,0019.03,0005.74
2022-07-18 20:49:00,,0826.0,5.00,0.00,29.4,28.0,00.0,37.9,31.3,27.7,0000.0,0006.84,0019.65,0005.79
2022-07-18 20:50:00,,0825.9,5.00,0.00,29.3,27.4,00.0,37.9,31.2,27.1,0000.0,0006.93,0020.49,0005.84
2022-07-18 20:51:00,,0825.8,5.02,0.00,29.3,27.2,00.0,37.8,31.2,27.6,0000.0,0007.02,0019.32,0005.89
2022-07-18 20:52:00,,0825.7,5.00,0.00,29.3,27.3,00.0,37.9,31.1,28.0,0000.0,0007.08,0019.82,0005.90
2022-07-18 20:53:00,,0825.7,5.00,0.00,29.3,27.5,00.0,37.9,31.1,28.0,0000.0,0007.11,0019.80,0005.91
2022-07-18 20:54:00,,0825.7,4.99,0.00,29.3,27.7,00.0,37.9,31.2,27.6,0000.0,0007.12,0018.89,0005.91
2022-07-18 20:55:00,,0825.7,5.00,0.00,29.3,28.0,00.0,37.9,31.3,27.2,0000.0,0007.15,0019.26,0005.93
2022-07-18 20:56:00,,0825.7,5.00,0.00,29.4,27.8,00.0,37.9,31.3,27.3,0000.0,0007.16,0018.56,0005.93
2022-07-18 20:57:00,,0825.9,5.00,0.00,29.3,27.3,00.0,37.9,31.2,27.2,0000.0,0007.12,0017.98,0005.94
2022-07-18 20:58:00,,0825.9,5.01,0.00,29.3,27.1,00.0,37.9,31.2,27.5,0000.0,0007.08,0017.89,0005.93
2022-07-18 20:59:00,,0826.0,5.00,0.00,29.3,27.2,00.0,37.9,31.1,28.0,0000.0,0007.06,0017.03,0005.92
